Tracking 18840 objects as of 19-November-2017
HD Live streaming from Space Station
objects crossing your sky now

FENGYUN 1C DEB

Track FENGYUN 1C DEB now!
10-day predictions


NORAD ID: 31010
Int'l Code: 1999-025BDC
Perigee: 799.0 km
Apogee: 1,026.9 km
Inclination: 101.7 °
Period: 103.1 minutes
Semi major axis: 7283 km
RCS: 0.015 m2 (small)
Launch date: May 10, 1999
Source: People's Republic of China (PRC)
Launch site: Taiyaun Space Center, China (TSC)

Note: This is SATELLITE DEBRIS
aabbcc
Your satellite tracking list
Your tracking list is empty




NASA's NSSDC Master Catalog

Two Line Element Set (TLE):
1 31010U 99025BDC 17323.15869067  .00001259  00000-0  86448-3 0  9998
2 31010 101.7483 299.0077 0156478 201.2733 158.1866 13.96533532543034
Source of the keplerian elements: AFSPC